Time,TemperatureF,DewpointF,PressureIn,WindDirection,WindDirectionDegrees,WindSpeedMPH,WindSpeedGustMPH,Humidity,HourlyPrecipIn,Conditions,Clouds,dailyrainin,SolarRadiationWatts/m^2,SoftwareType,DateUTC
2013-07-29 00:01:00,62.0,57.1,29.70,South,169,0.0,0.0,84,0.00,SCT,SCT,0.00,0.0,WeatherDisplay:10.37,2013-07-29 06:01:00,
2013-07-29 00:06:00,61.9,57.0,29.70,South,169,0.0,1.1,84,0.00,SCT,SCT,0.00,0.0,WeatherDisplay:10.37,2013-07-29 06:06:00,
2013-07-29 00:11:00,61.9,57.0,29.70,South,170,0.0,0.0,84,0.00,SCT,SCT,0.00,0.0,WeatherDisplay:10.37,2013-07-29 06:11:00,
2013-07-29 00:16:00,61.8,56.9,29.70,South,169,0.5,2.3,84,0.00,SCT,SCT,0.00,0.0,WeatherDisplay:10.37,2013-07-29 06:16:00,
2013-07-29 00:21:00,61.8,56.9,29.70,South,170,0.8,3.4,84,0.00,SCT,SCT,0.00,0.0,WeatherDisplay:10.37,2013-07-29 06:21:00,
2013-07-29 00:26:00,61.7,56.8,29.69,South,170,0.0,1.0,84,0.00,SCT,SCT,0.00,0.0,WeatherDisplay:10.37,2013-07-29 06:26:00,
2013-07-29 00:31:00,61.7,56.8,29.70,South,169,0.0,0.0,84,0.00,SCT,SCT,0.00,0.0,WeatherDisplay:10.37,2013-07-29 06:31:00,
2013-07-29 00:36:00,61.6,56.7,29.70,South,169,0.0,0.0,84,0.00,SCT,SCT,0.00,0.0,WeatherDisplay:10.37,2013-07-29 06:36:00,
2013-07-29 00:41:00,61.5,56.6,29.70,South,170,0.0,0.0,84,0.00,SCT,SCT,0.00,0.0,WeatherDisplay:10.37,2013-07-29 06:41:00,
2013-07-29 00:46:00,61.4,56.5,29.70,South,170,0.0,0.0,84,0.00,SCT,SCT,0.00,0.0,WeatherDisplay:10.37,2013-07-29 06:46:00,
2013-07-29 00:51:00,61.3,56.4,29.70,South,170,0.0,0.0,84,0.00,SCT,SCT,0.00,0.0,WeatherDisplay:10.37,2013-07-29 06:51:00,
2013-07-29 00:56:00,61.2,56.3,29.71,South,170,0.0,1.1,84,0.00,SCT,SCT,0.00,0.0,WeatherDisplay:10.37,2013-07-29 06:56:00,
2013-07-29 01:01:00,61.1,56.6,29.70,South,170,0.0,0.0,85,0.00,SCT,SCT,0.00,0.0,WeatherDisplay:10.37,2013-07-29 07:01:00,
2013-07-29 01:06:00,61.0,56.5,29.69,South,170,0.0,0.0,85,0.00,SCT,SCT,0.00,0.0,WeatherDisplay:10.37,2013-07-29 07:06:00,
2013-07-29 01:11:00,60.9,56.4,29.70,South,170,0.0,0.0,85,0.00,SCT,SCT,0.00,0.0,WeatherDisplay:10.37,2013-07-29 07:11:00,
2013-07-29 01:16:00,60.8,56.3,29.70,South,169,0.0,0.0,85,0.00,SCT,SCT,0.00,0.0,WeatherDisplay:10.37,2013-07-29 07:16:00,
2013-07-29 01:21:00,60.6,56.1,29.70,South,170,0.0,0.0,85,0.00,SCT,SCT,0.00,0.0,WeatherDisplay:10.37,2013-07-29 07:21:00,
2013-07-29 01:26:00,60.5,56.0,29.70,South,169,0.0,0.0,85,0.00,SCT,SCT,0.00,0.0,WeatherDisplay:10.37,2013-07-29 07:26:00,
2013-07-29 01:31:00,60.4,55.9,29.70,South,169,0.2,0.0,85,0.00,SCT,SCT,0.00,0.0,WeatherDisplay:10.37,2013-07-29 07:31:00,
2013-07-29 01:36:00,60.2,56.0,29.70,South,170,0.0,0.0,86,0.00,SCT,SCT,0.00,0.0,WeatherDisplay:10.37,2013-07-29 07:36:00,
2013-07-29 01:41:00,60.1,55.9,29.69,South,169,1.4,2.3,86,0.00,SCT,SCT,0.00,0.0,WeatherDisplay:10.37,2013-07-29 07:41:00,
2013-07-29 01:46:00,60.0,55.8,29.69,South,172,0.6,2.3,86,0.00,SCT,SCT,0.00,0.0,WeatherDisplay:10.37,2013-07-29 07:46:00,
2013-07-29 01:51:00,59.9,55.7,29.69,South,182,1.4,2.0,86,0.00,SCT,SCT,0.00,0.0,WeatherDisplay:10.37,2013-07-29 07:51:00,
2013-07-29 01:56:00,59.9,55.7,29.69,SSW,194,0.0,0.0,86,0.00,SCT,SCT,0.00,0.0,WeatherDisplay:10.37,2013-07-29 07:56:00,
2013-07-29 02:01:00,59.9,56.0,29.69,SSW,194,0.8,2.0,87,0.00,SCT,SCT,0.00,0.0,WeatherDisplay:10.37,2013-07-29 08:01:00,
2013-07-29 02:06:00,59.8,55.9,29.69,SSW,194,0.0,0.0,87,0.00,SCT,SCT,0.00,0.0,WeatherDisplay:10.37,2013-07-29 08:06:00,
2013-07-29 02:11:00,59.8,55.9,29.69,SSW,194,0.0,0.0,87,0.00,SCT,SCT,0.00,0.0,WeatherDisplay:10.37,2013-07-29 08:11:00,
2013-07-29 02:16:00,59.8,55.9,29.68,SSW,194,0.0,0.0,87,0.00,SCT,SCT,0.00,0.0,WeatherDisplay:10.37,2013-07-29 08:16:00,
2013-07-29 02:21:00,59.8,55.9,29.68,SSW,193,0.6,4.6,87,0.00,SCT,SCT,0.00,0.0,WeatherDisplay:10.37,2013-07-29 08:21:00,
2013-07-29 02:26:00,59.7,55.8,29.68,SSW,193,0.0,2.3,87,0.00,SCT,SCT,0.00,0.0,WeatherDisplay:10.37,2013-07-29 08:26:00,
2013-07-29 02:31:00,59.7,55.8,29.68,SSW,193,0.0,0.0,87,0.00,SCT,SCT,0.00,0.0,WeatherDisplay:10.37,2013-07-29 08:31:00,
2013-07-29 02:36:00,59.7,55.8,29.68,SSW,193,0.5,2.0,87,0.00,SCT,SCT,0.00,0.0,WeatherDisplay:10.37,2013-07-29 08:36:00,
2013-07-29 02:41:00,59.8,55.9,29.68,South,185,0.1,3.4,87,0.00,SCT,SCT,0.00,0.0,WeatherDisplay:10.37,2013-07-29 08:41:00,
2013-07-29 02:46:00,59.9,56.0,29.68,South,185,0.0,0.0,87,0.00,SCT,SCT,0.00,0.0,WeatherDisplay:10.37,2013-07-29 08:46:00,
2013-07-29 02:51:00,59.9,56.0,29.68,South,184,0.0,0.0,87,0.00,SCT,SCT,0.00,0.0,WeatherDisplay:10.37,2013-07-29 08:51:00,
2013-07-29 02:56:00,60.0,56.1,29.68,South,186,0.9,2.3,87,0.00,SCT,SCT,0.00,0.0,WeatherDisplay:10.37,2013-07-29 08:56:00,
2013-07-29 03:01:00,60.0,56.1,29.68,South,186,0.0,0.0,87,0.00,SCT,SCT,0.00,0.0,WeatherDisplay:10.37,2013-07-29 09:01:00,
2013-07-29 03:06:00,60.0,56.1,29.67,South,186,0.0,0.0,87,0.00,SCT,SCT,0.00,0.0,WeatherDisplay:10.37,2013-07-29 09:06:00,
2013-07-29 03:11:00,59.9,56.0,29.67,South,186,0.0,0.0,87,0.00,SCT,SCT,0.00,0.0,WeatherDisplay:10.37,2013-07-29 09:11:00,
2013-07-29 03:16:00,59.9,56.0,29.67,South,186,0.0,0.0,87,0.00,SCT,SCT,0.00,0.0,WeatherDisplay:10.37,2013-07-29 09:16:00,
2013-07-29 03:21:00,59.8,55.9,29.67,South,186,0.0,0.0,87,0.00,SCT,SCT,0.00,0.0,WeatherDisplay:10.37,2013-07-29 09:21:00,
2013-07-29 03:26:00,59.7,55.8,29.67,South,186,0.7,2.3,87,0.00,SCT,SCT,0.00,0.0,WeatherDisplay:10.37,2013-07-29 09:26:00,
2013-07-29 03:31:00,59.6,55.7,29.67,South,186,0.6,2.3,87,0.00,SCT,SCT,0.00,0.0,WeatherDisplay:10.37,2013-07-29 09:31:00,
2013-07-29 03:36:00,59.5,55.6,29.67,South,186,0.0,0.0,87,0.00,SCT,SCT,0.00,0.0,WeatherDisplay:10.37,2013-07-29 09:36:00,
2013-07-29 03:41:00,59.5,55.6,29.67,South,186,0.0,0.0,87,0.00,SCT,SCT,0.00,0.0,WeatherDisplay:10.37,2013-07-29 09:41:00,
2013-07-29 03:46:00,59.5,55.6,29.67,South,186,0.0,0.0,87,0.00,SCT,SCT,0.00,0.0,WeatherDisplay:10.37,2013-07-29 09:46:00,
2013-07-29 03:51:00,59.4,55.5,29.67,South,186,0.0,0.0,87,0.00,SCT,SCT,0.00,0.0,WeatherDisplay:10.37,2013-07-29 09:51:00,
2013-07-29 03:56:00,59.4,55.5,29.68,South,186,0.0,0.0,87,0.00,SCT,SCT,0.00,0.0,WeatherDisplay:10.37,2013-07-29 09:56:00,
2013-07-29 04:01:00,59.3,55.4,29.68,South,186,0.0,0.0,87,0.00,BKN,BKN,0.00,0.0,WeatherDisplay:10.37,2013-07-29 10:01:00,
2013-07-29 04:06:00,59.1,55.2,29.68,South,186,0.0,0.0,87,0.00,BKN,BKN,0.00,0.0,WeatherDisplay:10.37,2013-07-29 10:06:00,
2013-07-29 04:11:00,59.0,55.1,29.68,South,186,0.0,0.0,87,0.00,BKN,BKN,0.00,0.0,WeatherDisplay:10.37,2013-07-29 10:11:00,
2013-07-29 04:16:00,59.0,55.1,29.68,South,186,0.0,0.0,87,0.00,BKN,BKN,0.00,0.0,WeatherDisplay:10.37,2013-07-29 10:16:00,
2013-07-29 04:21:00,59.0,55.1,29.68,South,186,0.0,0.0,87,0.00,BKN,BKN,0.00,0.0,WeatherDisplay:10.37,2013-07-29 10:21:00,
2013-07-29 04:26:00,59.0,55.1,29.68,South,186,0.0,0.0,87,0.00,BKN,BKN,0.00,0.0,WeatherDisplay:10.37,2013-07-29 10:26:00,
2013-07-29 04:31:00,58.8,54.9,29.68,South,186,0.0,0.0,87,0.00,BKN,BKN,0.00,0.0,WeatherDisplay:10.37,2013-07-29 10:31:00,
2013-07-29 04:36:00,58.7,54.8,29.68,South,186,0.0,0.0,87,0.00,BKN,BKN,0.00,0.0,WeatherDisplay:10.37,2013-07-29 10:36:00,
2013-07-29 04:41:00,58.6,54.7,29.68,South,186,0.0,0.0,87,0.00,BKN,BKN,0.00,0.0,WeatherDisplay:10.37,2013-07-29 10:41:00,
2013-07-29 04:46:00,58.6,55.1,29.68,South,186,0.0,0.0,88,0.00,BKN,BKN,0.00,0.0,WeatherDisplay:10.37,2013-07-29 10:46:00,
2013-07-29 04:51:00,58.5,55.0,29.69,South,186,0.0,0.0,88,0.00,BKN,BKN,0.00,0.0,WeatherDisplay:10.37,2013-07-29 10:51:00,
2013-07-29 04:56:00,58.5,55.0,29.69,South,186,0.0,0.0,88,0.00,BKN,BKN,0.00,0.0,WeatherDisplay:10.37,2013-07-29 10:56:00,
2013-07-29 05:01:00,58.5,55.0,29.69,South,186,0.0,0.0,88,0.00,BKN,BKN,0.00,0.0,WeatherDisplay:10.37,2013-07-29 11:01:00,
2013-07-29 05:07:00,58.5,55.0,29.68,South,186,0.0,0.0,88,0.00,BKN,BKN,0.00,0.0,WeatherDisplay:10.37,2013-07-29 11:07:00,
2013-07-29 05:12:00,58.4,54.9,29.69,South,186,0.0,0.0,88,0.00,CLR,CLR,0.00,0.0,WeatherDisplay:10.37,2013-07-29 11:12:00,
2013-07-29 05:17:00,58.4,54.9,29.69,South,186,0.0,0.0,88,0.00,CLR,CLR,0.00,0.0,WeatherDisplay:10.37,2013-07-29 11:17:00,
2013-07-29 05:22:00,58.3,55.1,29.69,South,186,0.0,0.0,89,0.00,CLR,CLR,0.00,0.0,WeatherDisplay:10.37,2013-07-29 11:22:00,
2013-07-29 05:27:00,58.3,55.1,29.69,South,186,0.1,0.0,89,0.00,OVC,OVC,0.00,0.0,WeatherDisplay:10.37,2013-07-29 11:27:00,
2013-07-29 05:32:00,58.3,55.1,29.69,South,186,0.0,0.0,89,0.00,OVC,OVC,0.00,0.0,WeatherDisplay:10.37,2013-07-29 11:32:00,
2013-07-29 05:37:00,58.2,55.0,29.70,South,186,0.0,0.0,89,0.00,OVC,OVC,0.00,0.0,WeatherDisplay:10.37,2013-07-29 11:37:00,
2013-07-29 05:42:00,58.1,54.9,29.70,South,186,0.0,0.0,89,0.00,OVC,OVC,0.00,0.0,WeatherDisplay:10.37,2013-07-29 11:42:00,
2013-07-29 05:47:00,58.1,54.9,29.70,South,186,0.0,0.0,89,0.00,OVC,OVC,0.00,0.0,WeatherDisplay:10.37,2013-07-29 11:47:00,
2013-07-29 05:52:00,58.0,54.8,29.70,South,186,0.0,0.0,89,0.00,OVC,OVC,0.00,0.0,WeatherDisplay:10.37,2013-07-29 11:52:00,
2013-07-29 05:57:00,58.1,55.2,29.70,South,186,0.0,0.0,90,0.00,OVC,OVC,0.00,0.0,WeatherDisplay:10.37,2013-07-29 11:57:00,
2013-07-29 06:02:00,58.1,55.2,29.70,South,186,0.0,0.0,90,0.00,OVC,OVC,0.00,5.0,WeatherDisplay:10.37,2013-07-29 12:02:00,
2013-07-29 06:07:00,58.1,55.2,29.70,South,186,0.0,0.0,90,0.00,OVC,OVC,0.00,16.0,WeatherDisplay:10.37,2013-07-29 12:07:00,
2013-07-29 06:12:00,58.0,55.1,29.71,South,186,0.0,0.0,90,0.00,OVC,OVC,0.00,28.0,WeatherDisplay:10.37,2013-07-29 12:12:00,
2013-07-29 06:17:00,58.0,55.1,29.71,South,186,0.0,0.0,90,0.00,OVC,OVC,0.00,32.0,WeatherDisplay:10.37,2013-07-29 12:17:00,
2013-07-29 06:22:00,58.0,55.1,29.70,South,186,0.0,0.0,90,0.00,OVC,OVC,0.00,33.0,WeatherDisplay:10.37,2013-07-29 12:22:00,
2013-07-29 06:27:00,58.1,55.5,29.70,South,186,0.0,0.0,91,0.00,OVC,OVC,0.00,40.0,WeatherDisplay:10.37,2013-07-29 12:27:00,
2013-07-29 06:32:00,58.2,55.6,29.70,South,186,0.0,0.0,91,0.00,OVC,OVC,0.00,49.0,WeatherDisplay:10.37,2013-07-29 12:32:00,
2013-07-29 06:37:00,58.3,55.7,29.71,South,186,0.0,0.0,91,0.00,OVC,OVC,0.00,60.0,WeatherDisplay:10.37,2013-07-29 12:37:00,
2013-07-29 06:42:00,58.4,55.8,29.72,South,186,0.0,0.0,91,0.00,OVC,OVC,0.00,100.0,WeatherDisplay:10.37,2013-07-29 12:42:00,
2013-07-29 06:47:00,58.4,55.8,29.72,South,186,0.0,0.0,91,0.00,OVC,OVC,0.00,107.0,WeatherDisplay:10.37,2013-07-29 12:47:00,
2013-07-29 06:52:00,58.6,56.3,29.71,South,186,0.2,2.0,92,0.00,OVC,OVC,0.00,100.0,WeatherDisplay:10.37,2013-07-29 12:52:00,
2013-07-29 06:57:00,58.9,56.6,29.70,NE,51,2.6,3.4,92,0.00,OVC,OVC,0.00,74.0,WeatherDisplay:10.37,2013-07-29 12:57:00,
2013-07-29 07:02:00,59.0,56.7,29.70,ENE,78,1.7,4.0,92,0.00,OVC,OVC,0.00,76.0,WeatherDisplay:10.37,2013-07-29 13:02:00,
2013-07-29 07:07:00,59.0,56.7,29.72,NNE,22,3.2,6.9,92,0.00,OVC,OVC,0.00,60.0,WeatherDisplay:10.37,2013-07-29 13:07:00,
2013-07-29 07:12:00,58.9,56.6,29.72,NNE,23,2.3,5.0,92,0.00,OVC,OVC,0.00,42.0,WeatherDisplay:10.37,2013-07-29 13:12:00,
2013-07-29 07:17:00,58.9,56.6,29.72,NNE,33,2.1,3.4,92,0.00,OVC,OVC,0.00,69.0,WeatherDisplay:10.37,2013-07-29 13:17:00,
2013-07-29 07:22:00,58.9,56.6,29.73,NNE,33,1.6,3.4,92,0.00,OVC,OVC,0.00,33.0,WeatherDisplay:10.37,2013-07-29 13:22:00,
2013-07-29 07:27:00,59.0,56.7,29.73,NNE,33,0.0,0.0,92,0.00,OVC,OVC,0.00,28.0,WeatherDisplay:10.37,2013-07-29 13:27:00,
2013-07-29 07:32:00,59.0,56.7,29.74,NE,34,1.7,3.4,92,0.00,OVC,OVC,0.00,16.0,WeatherDisplay:10.37,2013-07-29 13:32:00,
2013-07-29 07:37:00,59.0,57.0,29.74,NNE,33,0.0,0.0,93,0.00,OVC,OVC,0.00,67.0,WeatherDisplay:10.37,2013-07-29 13:37:00,
2013-07-29 07:42:00,59.0,57.0,29.74,NNE,33,0.0,2.3,93,0.00,OVC,OVC,0.00,77.0,WeatherDisplay:10.37,2013-07-29 13:42:00,
2013-07-29 07:47:00,59.0,57.0,29.74,NE,46,1.0,3.4,93,0.00,OVC,OVC,0.00,70.0,WeatherDisplay:10.37,2013-07-29 13:47:00,
2013-07-29 07:52:00,59.0,57.0,29.74,NE,46,0.5,2.3,93,0.00,OVC,OVC,0.00,72.0,WeatherDisplay:10.37,2013-07-29 13:52:00,
2013-07-29 07:57:00,59.0,57.0,29.74,NE,46,0.1,1.1,93,0.00,OVC,OVC,0.00,70.0,WeatherDisplay:10.37,2013-07-29 13:57:00,
2013-07-29 08:02:00,59.0,57.0,29.74,NE,46,1.5,3.4,93,0.00,OVC,OVC,0.00,88.0,WeatherDisplay:10.37,2013-07-29 14:02:00,
2013-07-29 08:07:00,59.1,57.1,29.75,NE,46,1.8,4.6,93,0.00,OVC,OVC,0.00,104.0,WeatherDisplay:10.37,2013-07-29 14:07:00,
2013-07-29 08:12:00,59.2,57.2,29.75,NE,45,2.1,3.4,93,0.00,OVC,OVC,0.00,95.0,WeatherDisplay:10.37,2013-07-29 14:12:00,
2013-07-29 08:17:00,59.3,57.3,29.75,NE,46,0.7,2.0,93,0.00,OVC,OVC,0.00,105.0,WeatherDisplay:10.37,2013-07-29 14:17:00,
2013-07-29 08:22:00,59.4,57.4,29.76,NE,46,2.7,3.4,93,0.00,OVC,OVC,0.00,100.0,WeatherDisplay:10.37,2013-07-29 14:22:00,
2013-07-29 08:27:00,59.4,57.4,29.76,NE,45,1.7,3.4,93,0.00,OVC,OVC,0.00,86.0,WeatherDisplay:10.37,2013-07-29 14:27:00,
2013-07-29 08:32:00,59.4,57.7,29.76,NE,45,0.4,2.3,94,0.00,OVC,OVC,0.00,93.0,WeatherDisplay:10.37,2013-07-29 14:32:00,
2013-07-29 08:37:00,59.4,57.7,29.76,NE,45,0.0,0.0,94,0.00,OVC,OVC,0.00,76.0,WeatherDisplay:10.37,2013-07-29 14:37:00,
2013-07-29 08:42:00,59.5,57.8,29.77,NE,45,0.1,1.1,94,0.00,OVC,OVC,0.00,114.0,WeatherDisplay:10.37,2013-07-29 14:42:00,
2013-07-29 08:47:00,59.6,57.9,29.77,NE,45,0.0,0.0,94,0.00,OVC,OVC,0.00,123.0,WeatherDisplay:10.37,2013-07-29 14:47:00,
2013-07-29 08:52:00,59.7,58.0,29.77,NE,45,0.4,1.1,94,0.00,OVC,OVC,0.00,128.0,WeatherDisplay:10.37,2013-07-29 14:52:00,
2013-07-29 08:57:00,59.8,58.1,29.76,NE,45,0.0,0.0,94,0.00,OVC,OVC,0.00,135.0,WeatherDisplay:10.37,2013-07-29 14:57:00,
2013-07-29 09:02:00,59.9,58.2,29.77,NE,45,0.0,1.1,94,0.00,OVC,OVC,0.00,172.0,WeatherDisplay:10.37,2013-07-29 15:02:00,
2013-07-29 09:07:00,60.0,58.3,29.77,NE,45,0.0,1.1,94,0.00,OVC,OVC,0.00,149.0,WeatherDisplay:10.37,2013-07-29 15:07:00,
2013-07-29 09:12:00,60.1,58.4,29.77,NE,45,0.0,0.0,94,0.00,OVC,OVC,0.00,142.0,WeatherDisplay:10.37,2013-07-29 15:12:00,
2013-07-29 09:17:00,60.2,58.5,29.77,NE,45,0.1,0.0,94,0.00,OVC,OVC,0.00,153.0,WeatherDisplay:10.37,2013-07-29 15:17:00,
2013-07-29 09:22:00,60.3,58.6,29.77,NE,45,1.2,2.3,94,0.00,OVC,OVC,0.00,169.0,WeatherDisplay:10.37,2013-07-29 15:22:00,
2013-07-29 09:27:00,60.4,58.7,29.77,NE,45,0.0,0.0,94,0.00,OVC,OVC,0.00,188.0,WeatherDisplay:10.37,2013-07-29 15:27:00,
2013-07-29 09:32:00,60.4,58.7,29.76,NE,45,0.8,2.3,94,0.00,OVC,OVC,0.00,227.0,WeatherDisplay:10.37,2013-07-29 15:32:00,
2013-07-29 09:37:00,60.6,58.9,29.76,NE,45,1.1,3.0,94,0.00,OVC,OVC,0.00,229.0,WeatherDisplay:10.37,2013-07-29 15:37:00,
2013-07-29 09:42:00,60.5,58.8,29.77,NE,45,1.0,2.3,94,0.00,OVC,OVC,0.00,202.0,WeatherDisplay:10.37,2013-07-29 15:42:00,
2013-07-29 09:47:00,60.7,59.0,29.77,NE,44,0.0,1.1,94,0.00,OVC,OVC,0.00,221.0,WeatherDisplay:10.37,2013-07-29 15:47:00,
2013-07-29 09:52:00,60.9,59.2,29.77,NE,45,0.0,1.1,94,0.00,OVC,OVC,0.00,294.0,WeatherDisplay:10.37,2013-07-29 15:52:00,
2013-07-29 09:57:00,61.1,59.4,29.77,NE,44,0.0,1.1,94,0.00,OVC,OVC,0.00,304.0,WeatherDisplay:10.37,2013-07-29 15:57:00,
2013-07-29 10:02:00,61.3,59.6,29.77,NE,44,0.0,1.0,94,0.00,OVC,OVC,0.00,316.0,WeatherDisplay:10.37,2013-07-29 16:02:00,
2013-07-29 10:07:00,61.6,59.9,29.78,NE,44,0.0,1.1,94,0.00,OVC,OVC,0.00,271.0,WeatherDisplay:10.37,2013-07-29 16:07:00,
2013-07-29 10:12:00,61.9,60.2,29.78,NE,44,0.2,1.0,94,0.00,OVC,OVC,0.00,396.0,WeatherDisplay:10.37,2013-07-29 16:12:00,
2013-07-29 10:17:00,62.2,60.5,29.78,NE,45,0.0,3.4,94,0.00,OVC,OVC,0.00,313.0,WeatherDisplay:10.37,2013-07-29 16:17:00,
2013-07-29 10:22:00,62.5,60.4,29.77,NE,45,0.4,2.0,93,0.00,OVC,OVC,0.00,262.0,WeatherDisplay:10.37,2013-07-29 16:22:00,
2013-07-29 10:27:00,62.7,60.6,29.77,NE,45,0.0,1.1,93,0.00,OVC,OVC,0.00,288.0,WeatherDisplay:10.37,2013-07-29 16:27:00,
2013-07-29 10:32:00,63.0,60.9,29.77,NE,44,0.0,0.0,93,0.00,OVC,OVC,0.00,265.0,WeatherDisplay:10.37,2013-07-29 16:32:00,
2013-07-29 10:37:00,63.2,61.1,29.77,NE,45,0.3,1.1,93,0.00,OVC,OVC,0.00,272.0,WeatherDisplay:10.37,2013-07-29 16:37:00,
2013-07-29 10:42:00,63.2,60.8,29.77,NE,44,1.0,1.1,92,0.00,OVC,OVC,0.00,343.0,WeatherDisplay:10.37,2013-07-29 16:42:00,
2013-07-29 10:47:00,63.3,60.6,29.77,NE,44,1.4,3.4,91,0.00,OVC,OVC,0.00,352.0,WeatherDisplay:10.37,2013-07-29 16:47:00,
2013-07-29 10:52:00,63.5,60.8,29.78,NE,44,0.0,3.4,91,0.00,OVC,OVC,0.00,360.0,WeatherDisplay:10.37,2013-07-29 16:52:00,
2013-07-29 10:57:00,63.7,61.0,29.78,NE,45,1.1,3.4,91,0.00,OVC,OVC,0.00,513.0,WeatherDisplay:10.37,2013-07-29 16:57:00,
2013-07-29 11:02:00,64.0,61.0,29.78,ESE,105,0.4,4.6,90,0.00,OVC,OVC,0.00,545.0,WeatherDisplay:10.37,2013-07-29 17:02:00,
2013-07-29 11:07:00,64.4,61.1,29.78,ESE,105,1.1,3.4,89,0.00,OVC,OVC,0.00,475.0,WeatherDisplay:10.37,2013-07-29 17:07:00,
2013-07-29 11:13:00,64.8,61.5,29.78,ESE,105,0.7,2.3,89,0.00,OVC,OVC,0.00,448.0,WeatherDisplay:10.37,2013-07-29 17:13:00,
2013-07-29 11:18:00,65.2,61.6,29.78,ESE,105,0.2,0.0,88,0.00,OVC,OVC,0.00,432.0,WeatherDisplay:10.37,2013-07-29 17:18:00,
2013-07-29 11:23:00,65.7,61.4,29.77,NE,38,3.3,5.8,86,0.00,OVC,OVC,0.00,392.0,WeatherDisplay:10.37,2013-07-29 17:23:00,
2013-07-29 11:28:00,66.0,61.4,29.77,NE,38,0.4,2.3,85,0.00,OVC,OVC,0.00,418.0,WeatherDisplay:10.37,2013-07-29 17:28:00,
2013-07-29 11:33:00,66.2,61.2,29.77,NE,38,3.6,4.6,84,0.00,OVC,OVC,0.00,401.0,WeatherDisplay:10.37,2013-07-29 17:33:00,
2013-07-29 11:38:00,66.5,61.2,29.77,NE,38,0.0,3.4,83,0.00,OVC,OVC,0.00,397.0,WeatherDisplay:10.37,2013-07-29 17:38:00,
2013-07-29 11:43:00,67.0,61.3,29.77,NE,38,1.8,3.4,82,0.00,OVC,OVC,0.00,432.0,WeatherDisplay:10.37,2013-07-29 17:43:00,
2013-07-29 11:48:00,67.0,61.3,29.77,NE,38,0.1,1.1,82,0.00,OVC,OVC,0.00,422.0,WeatherDisplay:10.37,2013-07-29 17:48:00,
2013-07-29 11:53:00,67.4,61.4,29.77,NE,38,0.1,1.1,81,0.00,OVC,OVC,0.00,399.0,WeatherDisplay:10.37,2013-07-29 17:53:00,
2013-07-29 11:58:00,67.7,61.3,29.76,NE,38,0.0,1.1,80,0.00,OVC,OVC,0.00,387.0,WeatherDisplay:10.37,2013-07-29 17:58:00,
2013-07-29 12:03:00,68.1,61.3,29.77,NNE,32,1.2,3.4,79,0.00,OVC,OVC,0.00,343.0,WeatherDisplay:10.37,2013-07-29 18:03:00,
2013-07-29 12:08:00,68.3,61.5,29.77,NNE,32,0.8,2.3,79,0.00,OVC,OVC,0.00,376.0,WeatherDisplay:10.37,2013-07-29 18:08:00,
2013-07-29 12:13:00,68.3,61.2,29.77,NNE,32,1.1,2.3,78,0.00,OVC,OVC,0.00,448.0,WeatherDisplay:10.37,2013-07-29 18:13:00,
2013-07-29 12:18:00,68.4,61.3,29.77,ENE,57,1.6,3.4,78,0.00,OVC,OVC,0.00,441.0,WeatherDisplay:10.37,2013-07-29 18:18:00,
2013-07-29 12:23:00,68.6,61.5,29.77,ENE,57,1.7,3.4,78,0.00,OVC,OVC,0.00,348.0,WeatherDisplay:10.37,2013-07-29 18:23:00,
2013-07-29 12:28:00,68.8,61.7,29.77,ENE,57,0.9,3.4,78,0.00,OVC,OVC,0.00,323.0,WeatherDisplay:10.37,2013-07-29 18:28:00,
2013-07-29 12:33:00,68.9,61.4,29.77,ENE,57,0.0,0.0,77,0.00,OVC,OVC,0.00,272.0,WeatherDisplay:10.37,2013-07-29 18:33:00,
2013-07-29 12:38:00,69.2,61.7,29.78,ENE,57,0.0,0.0,77,0.00,OVC,OVC,0.00,193.0,WeatherDisplay:10.37,2013-07-29 18:38:00,
2013-07-29 12:43:00,69.4,61.5,29.78,ENE,57,0.6,2.3,76,0.00,OVC,OVC,0.00,121.0,WeatherDisplay:10.37,2013-07-29 18:43:00,
2013-07-29 12:48:00,69.4,61.5,29.78,ENE,57,0.0,1.1,76,0.00,OVC,OVC,0.00,109.0,WeatherDisplay:10.37,2013-07-29 18:48:00,
2013-07-29 12:53:00,69.4,61.5,29.79,ENE,57,0.0,1.1,76,0.00,OVC,OVC,0.00,113.0,WeatherDisplay:10.37,2013-07-29 18:53:00,
2013-07-29 12:58:00,69.2,60.9,29.79,NW,304,0.3,2.3,75,0.00,OVC,OVC,0.00,111.0,WeatherDisplay:10.37,2013-07-29 18:58:00,
2013-07-29 13:03:00,69.0,61.1,29.81,NW,307,0.7,2.3,76,0.00,OVC,OVC,0.00,113.0,WeatherDisplay:10.37,2013-07-29 19:03:00,
2013-07-29 13:08:00,68.9,61.4,29.81,NW,307,0.7,2.3,77,0.00,OVC,OVC,0.00,128.0,WeatherDisplay:10.37,2013-07-29 19:08:00,
2013-07-29 13:13:00,68.7,61.6,29.81,NW,308,1.1,3.4,78,0.00,OVC,OVC,0.00,137.0,WeatherDisplay:10.37,2013-07-29 19:13:00,
2013-07-29 13:18:00,68.5,61.4,29.82,NW,307,1.0,3.4,78,0.00,OVC,OVC,0.00,149.0,WeatherDisplay:10.37,2013-07-29 19:18:00,
2013-07-29 13:23:00,68.3,61.5,29.82,NW,309,0.0,3.4,79,0.00,OVC,OVC,0.00,176.0,WeatherDisplay:10.37,2013-07-29 19:23:00,
2013-07-29 13:28:00,68.2,61.8,29.82,NW,309,0.0,0.0,80,0.00,OVC,OVC,0.00,192.0,WeatherDisplay:10.37,2013-07-29 19:28:00,
2013-07-29 13:33:00,68.2,62.1,29.82,NW,306,1.6,3.4,81,0.00,OVC,OVC,0.00,223.0,WeatherDisplay:10.37,2013-07-29 19:33:00,
2013-07-29 13:38:00,68.1,62.0,29.82,NW,306,0.9,2.3,81,0.00,OVC,OVC,0.00,239.0,WeatherDisplay:10.37,2013-07-29 19:38:00,
2013-07-29 13:43:00,68.1,62.4,29.82,NW,306,0.0,0.0,82,0.00,OVC,OVC,0.00,243.0,WeatherDisplay:10.37,2013-07-29 19:43:00,
2013-07-29 13:48:00,68.0,62.3,29.82,NW,306,0.2,1.1,82,0.00,OVC,OVC,0.00,269.0,WeatherDisplay:10.37,2013-07-29 19:48:00,
2013-07-29 13:53:00,67.9,61.9,29.82,NW,306,0.2,2.3,81,0.00,-RA,-RA,0.00,287.0,WeatherDisplay:10.37,2013-07-29 19:53:00,
2013-07-29 13:58:00,67.9,61.9,29.83,NW,306,0.0,1.0,81,0.00,-RA,-RA,0.00,279.0,WeatherDisplay:10.37,2013-07-29 19:58:00,
2013-07-29 14:03:00,67.9,61.5,29.83,NW,306,0.3,3.4,80,0.00,-RA,-RA,0.00,276.0,WeatherDisplay:10.37,2013-07-29 20:03:00,
2013-07-29 14:08:00,67.8,61.0,29.83,WNW,289,3.5,6.9,79,0.00,-RA,-RA,0.00,288.0,WeatherDisplay:10.37,2013-07-29 20:08:00,
2013-07-29 14:13:00,67.7,60.6,29.83,WNW,288,0.1,2.0,78,0.00,-RA,-RA,0.00,294.0,WeatherDisplay:10.37,2013-07-29 20:13:00,
2013-07-29 14:18:00,67.9,61.1,29.83,North,360,0.2,1.1,79,0.00,-RA,-RA,0.00,360.0,WeatherDisplay:10.37,2013-07-29 20:18:00,
2013-07-29 14:23:00,68.0,60.9,29.84,North,355,0.0,2.3,78,0.00,-RA,-RA,0.00,338.0,WeatherDisplay:10.37,2013-07-29 20:23:00,
2013-07-29 14:28:00,68.1,61.0,29.83,North,355,0.5,3.4,78,0.00,-RA,-RA,0.00,322.0,WeatherDisplay:10.37,2013-07-29 20:28:00,
2013-07-29 14:33:00,68.2,60.7,29.84,North,349,0.1,1.1,77,0.00,-RA,-RA,0.00,353.0,WeatherDisplay:10.37,2013-07-29 20:33:00,
2013-07-29 14:38:00,68.4,61.3,29.84,North,349,0.1,1.1,78,0.00,-RA,-RA,0.00,308.0,WeatherDisplay:10.37,2013-07-29 20:38:00,
2013-07-29 14:43:00,68.5,61.0,29.84,NNW,346,0.1,1.1,77,0.00,-RA,-RA,0.00,244.0,WeatherDisplay:10.37,2013-07-29 20:43:00,
2013-07-29 14:48:00,68.5,60.6,29.84,NNW,346,0.1,1.1,76,0.00,-RA,-RA,0.00,297.0,WeatherDisplay:10.37,2013-07-29 20:48:00,
2013-07-29 14:53:00,68.6,60.7,29.84,NW,325,0.0,0.0,76,0.00,-RA,-RA,0.00,315.0,WeatherDisplay:10.37,2013-07-29 20:53:00,
2013-07-29 14:58:00,68.8,61.3,29.85,North,5,1.2,3.4,77,0.00,-RA,-RA,0.00,276.0,WeatherDisplay:10.37,2013-07-29 20:58:00,
2013-07-29 15:03:00,69.0,61.9,29.85,North,360,0.7,1.1,78,0.00,-RA,-RA,0.00,267.0,WeatherDisplay:10.37,2013-07-29 21:03:00,
2013-07-29 15:08:00,69.0,62.2,29.85,NE,36,1.2,3.4,79,0.00,-RA,-RA,0.00,311.0,WeatherDisplay:10.37,2013-07-29 21:08:00,
2013-07-29 15:13:00,68.9,62.1,29.85,NNE,30,1.0,3.4,79,0.00,OVC,OVC,0.00,279.0,WeatherDisplay:10.37,2013-07-29 21:13:00,
2013-07-29 15:18:00,68.8,62.0,29.85,NNE,19,0.0,0.0,79,0.00,OVC,OVC,0.00,301.0,WeatherDisplay:10.37,2013-07-29 21:18:00,
2013-07-29 15:23:00,68.6,60.7,29.85,NNE,19,0.3,3.4,76,0.00,OVC,OVC,0.00,294.0,WeatherDisplay:10.37,2013-07-29 21:23:00,
2013-07-29 15:28:00,68.7,60.1,29.85,NNE,19,0.5,2.3,74,0.00,OVC,OVC,0.00,304.0,WeatherDisplay:10.37,2013-07-29 21:28:00,
2013-07-29 15:33:00,68.8,59.8,29.86,NNE,15,0.0,1.1,73,0.00,OVC,OVC,0.00,297.0,WeatherDisplay:10.37,2013-07-29 21:33:00,
2013-07-29 15:38:00,69.1,60.1,29.87,WNW,283,0.9,3.4,73,0.00,OVC,OVC,0.00,257.0,WeatherDisplay:10.37,2013-07-29 21:38:00,
2013-07-29 15:43:00,69.2,59.8,29.87,NNE,18,0.0,1.1,72,0.00,OVC,OVC,0.00,229.0,WeatherDisplay:10.37,2013-07-29 21:43:00,
2013-07-29 15:48:00,69.2,59.8,29.87,NNE,16,0.9,3.4,72,0.00,OVC,OVC,0.00,195.0,WeatherDisplay:10.37,2013-07-29 21:48:00,
2013-07-29 15:53:00,69.3,59.9,29.86,SW,217,0.6,2.3,72,0.00,OVC,OVC,0.00,207.0,WeatherDisplay:10.37,2013-07-29 21:53:00,
2013-07-29 15:58:00,69.3,59.9,29.86,NW,310,0.8,3.4,72,0.00,OVC,OVC,0.00,193.0,WeatherDisplay:10.37,2013-07-29 21:58:00,
2013-07-29 16:03:00,69.2,59.8,29.88,North,9,0.0,1.1,72,0.00,OVC,OVC,0.00,204.0,WeatherDisplay:10.37,2013-07-29 22:03:00,
2013-07-29 16:08:00,69.2,60.2,29.87,North,9,0.0,1.1,73,0.00,OVC,OVC,0.00,269.0,WeatherDisplay:10.37,2013-07-29 22:08:00,
2013-07-29 16:13:00,69.2,59.8,29.87,WNW,298,0.0,3.4,72,0.00,OVC,OVC,0.00,327.0,WeatherDisplay:10.37,2013-07-29 22:13:00,
2013-07-29 16:18:00,69.2,59.4,29.87,NW,310,0.7,3.4,71,0.00,OVC,OVC,0.00,448.0,WeatherDisplay:10.37,2013-07-29 22:18:00,
2013-07-29 16:23:00,69.2,59.0,29.87,NNE,23,1.1,3.4,70,0.00,OVC,OVC,0.00,404.0,WeatherDisplay:10.37,2013-07-29 22:23:00,
2013-07-29 16:28:00,69.4,58.8,29.87,NNE,21,0.3,2.3,69,0.00,OVC,OVC,0.00,373.0,WeatherDisplay:10.37,2013-07-29 22:28:00,
2013-07-29 16:33:00,70.0,58.5,29.86,NNE,29,4.5,6.9,67,0.00,OVC,OVC,0.00,497.0,WeatherDisplay:10.37,2013-07-29 22:33:00,
2013-07-29 16:38:00,70.5,57.7,29.86,NNE,30,0.0,3.0,64,0.00,OVC,OVC,0.00,313.0,WeatherDisplay:10.37,2013-07-29 22:38:00,
2013-07-29 16:43:00,70.9,57.2,29.86,WSW,245,1.9,4.6,62,0.00,OVC,OVC,0.00,809.0,WeatherDisplay:10.37,2013-07-29 22:43:00,
2013-07-29 16:48:00,71.2,57.1,29.85,WNW,286,2.7,5.8,61,0.00,OVC,OVC,0.00,492.0,WeatherDisplay:10.37,2013-07-29 22:48:00,
2013-07-29 16:53:00,71.4,56.8,29.85,West,261,2.0,3.4,60,0.00,OVC,OVC,0.00,332.0,WeatherDisplay:10.37,2013-07-29 22:53:00,
2013-07-29 16:58:00,71.3,55.8,29.86,WNW,291,0.3,2.3,58,0.00,OVC,OVC,0.00,274.0,WeatherDisplay:10.37,2013-07-29 22:58:00,
2013-07-29 17:03:00,71.3,56.2,29.86,WNW,284,0.1,3.4,59,0.00,BKN,BKN,0.00,759.0,WeatherDisplay:10.37,2013-07-29 23:03:00,
2013-07-29 17:08:00,71.6,56.0,29.85,West,259,1.8,3.4,58,0.00,BKN,BKN,0.00,482.0,WeatherDisplay:10.37,2013-07-29 23:08:00,
2013-07-29 17:13:00,71.9,55.8,29.86,WNW,286,0.5,0.0,57,0.00,BKN,BKN,0.00,229.0,WeatherDisplay:10.37,2013-07-29 23:13:00,
2013-07-29 17:18:00,72.1,55.5,29.85,WNW,282,0.1,4.6,56,0.00,BKN,BKN,0.00,223.0,WeatherDisplay:10.37,2013-07-29 23:18:00,
2013-07-29 17:23:00,72.0,55.4,29.85,WNW,287,2.6,5.8,56,0.00,BKN,BKN,0.00,155.0,WeatherDisplay:10.37,2013-07-29 23:23:00,
2013-07-29 17:28:00,71.8,54.8,29.85,NW,309,0.0,2.3,55,0.00,BKN,BKN,0.00,114.0,WeatherDisplay:10.37,2013-07-29 23:28:00,
2013-07-29 17:33:00,71.7,55.2,29.85,WNW,302,0.1,0.0,56,0.00,BKN,BKN,0.00,95.0,WeatherDisplay:10.37,2013-07-29 23:33:00,
2013-07-29 17:38:00,71.6,55.1,29.85,WNW,287,0.0,2.3,56,0.00,BKN,BKN,0.00,97.0,WeatherDisplay:10.37,2013-07-29 23:38:00,
2013-07-29 17:43:00,71.4,54.9,29.87,West,281,0.0,0.0,56,0.00,BKN,BKN,0.00,144.0,WeatherDisplay:10.37,2013-07-29 23:43:00,
2013-07-29 17:48:00,71.3,55.3,29.87,WSW,257,0.9,3.4,57,0.00,BKN,BKN,0.00,151.0,WeatherDisplay:10.37,2013-07-29 23:48:00,
2013-07-29 17:53:00,71.0,55.0,29.87,West,281,0.0,1.1,57,0.00,BKN,BKN,0.00,146.0,WeatherDisplay:10.37,2013-07-29 23:53:00,
2013-07-29 17:58:00,70.8,54.3,29.87,SSW,209,1.8,5.8,56,0.00,BKN,BKN,0.00,109.0,WeatherDisplay:10.37,2013-07-29 23:58:00,
2013-07-29 18:03:00,70.7,54.7,29.85,SSW,206,1.3,4.0,57,0.00,BKN,BKN,0.00,109.0,WeatherDisplay:10.37,2013-07-30 00:03:00,
2013-07-29 18:08:00,70.7,55.2,29.85,SSW,206,0.1,3.4,58,0.00,BKN,BKN,0.00,165.0,WeatherDisplay:10.37,2013-07-30 00:08:00,
2013-07-29 18:13:00,70.6,54.6,29.84,SSW,201,1.7,5.8,57,0.00,BKN,BKN,0.00,329.0,WeatherDisplay:10.37,2013-07-30 00:13:00,
2013-07-29 18:18:00,70.8,54.8,29.84,SSW,202,1.6,5.8,57,0.00,BKN,BKN,0.00,420.0,WeatherDisplay:10.37,2013-07-30 00:18:00,
2013-07-29 18:23:00,71.3,55.3,29.83,South,169,1.1,4.0,57,0.00,BKN,BKN,0.00,360.0,WeatherDisplay:10.37,2013-07-30 00:23:00,
2013-07-29 18:28:00,71.7,56.1,29.83,South,186,3.4,9.2,58,0.00,BKN,BKN,0.00,304.0,WeatherDisplay:10.37,2013-07-30 00:28:00,
2013-07-29 18:33:00,71.8,56.7,29.83,South,178,1.0,6.9,59,0.00,BKN,BKN,0.00,279.0,WeatherDisplay:10.37,2013-07-30 00:33:00,
2013-07-29 18:38:00,71.8,57.2,29.82,SSW,205,1.2,3.4,60,0.00,BKN,BKN,0.00,260.0,WeatherDisplay:10.37,2013-07-30 00:38:00,
2013-07-29 18:43:00,71.9,57.7,29.83,SSE,167,1.1,2.3,61,0.00,BKN,BKN,0.00,243.0,WeatherDisplay:10.37,2013-07-30 00:43:00,
2013-07-29 18:48:00,71.9,57.3,29.82,WSW,249,2.0,4.6,60,0.00,BKN,BKN,0.00,227.0,WeatherDisplay:10.37,2013-07-30 00:48:00,
2013-07-29 18:53:00,71.9,57.3,29.83,SSW,198,2.1,4.6,60,0.00,BKN,BKN,0.00,209.0,WeatherDisplay:10.37,2013-07-30 00:53:00,
2013-07-29 18:58:00,71.8,57.2,29.83,SSE,158,5.4,9.2,60,0.00,BKN,BKN,0.00,195.0,WeatherDisplay:10.37,2013-07-30 00:58:00,
2013-07-29 19:03:00,71.6,57.9,29.83,South,182,1.2,1.2,62,0.00,BKN,BKN,0.00,179.0,WeatherDisplay:10.37,2013-07-30 01:03:00,
2013-07-29 19:08:00,71.5,57.3,29.83,SSW,206,0.1,3.4,61,0.00,BKN,BKN,0.00,163.0,WeatherDisplay:10.37,2013-07-30 01:08:00,
2013-07-29 19:13:00,71.3,56.7,29.83,SSW,192,0.6,5.8,60,0.00,BKN,BKN,0.00,153.0,WeatherDisplay:10.37,2013-07-30 01:13:00,
2013-07-29 19:18:00,71.2,57.1,29.83,South,191,0.0,0.0,61,0.00,BKN,BKN,0.00,137.0,WeatherDisplay:10.37,2013-07-30 01:18:00,
2013-07-29 19:23:00,71.0,56.9,29.83,South,173,4.1,4.1,61,0.00,BKN,BKN,0.00,121.0,WeatherDisplay:10.37,2013-07-30 01:23:00,
2013-07-29 19:28:00,70.6,56.9,29.83,South,186,0.3,0.0,62,0.00,BKN,BKN,0.00,32.0,WeatherDisplay:10.37,2013-07-30 01:28:00,
2013-07-29 19:34:00,70.2,56.6,29.85,SSW,196,1.7,3.4,62,0.00,BKN,BKN,0.00,19.0,WeatherDisplay:10.37,2013-07-30 01:34:00,
2013-07-29 19:39:00,69.9,56.7,29.84,South,184,1.7,3.4,63,0.00,BKN,BKN,0.00,14.0,WeatherDisplay:10.37,2013-07-30 01:39:00,
2013-07-29 19:44:00,69.6,56.9,29.84,South,185,0.5,4.0,64,0.00,BKN,BKN,0.00,53.0,WeatherDisplay:10.37,2013-07-30 01:44:00,
2013-07-29 19:49:00,69.4,56.7,29.84,South,183,0.5,2.3,64,0.00,BKN,BKN,0.00,44.0,WeatherDisplay:10.37,2013-07-30 01:49:00,
2013-07-29 19:54:00,69.1,56.8,29.85,South,183,0.8,3.4,65,0.00,BKN,BKN,0.00,12.0,WeatherDisplay:10.37,2013-07-30 01:54:00,
2013-07-29 19:59:00,68.9,57.1,29.85,SSE,164,1.2,3.4,66,0.00,BKN,BKN,0.00,9.0,WeatherDisplay:10.37,2013-07-30 01:59:00,
2013-07-29 20:04:00,68.6,56.8,29.85,SSE,150,2.2,3.4,66,0.00,BKN,BKN,0.00,5.0,WeatherDisplay:10.37,2013-07-30 02:04:00,
2013-07-29 20:09:00,68.3,56.5,29.85,SSE,150,2.8,3.4,66,0.00,BKN,BKN,0.00,5.0,WeatherDisplay:10.37,2013-07-30 02:09:00,
2013-07-29 20:14:00,68.0,56.2,29.85,SSE,160,1.7,4.6,66,0.00,BKN,BKN,0.00,0.0,WeatherDisplay:10.37,2013-07-30 02:14:00,
2013-07-29 20:19:00,67.7,56.3,29.86,SSE,157,0.4,3.4,67,0.00,BKN,BKN,0.00,0.0,WeatherDisplay:10.37,2013-07-30 02:19:00,
2013-07-29 20:24:00,67.5,56.2,29.86,SSE,157,0.8,2.3,67,0.00,BKN,BKN,0.00,0.0,WeatherDisplay:10.37,2013-07-30 02:24:00,
2013-07-29 20:29:00,67.2,56.3,29.87,SSE,157,0.1,2.3,68,0.00,BKN,BKN,0.00,0.0,WeatherDisplay:10.37,2013-07-30 02:29:00,
2013-07-29 20:34:00,67.0,56.5,29.87,SSE,157,0.1,2.3,69,0.00,BKN,BKN,0.00,0.0,WeatherDisplay:10.37,2013-07-30 02:34:00,
2013-07-29 20:39:00,66.8,56.7,29.88,SSE,157,0.8,2.3,70,0.00,BKN,BKN,0.00,0.0,WeatherDisplay:10.37,2013-07-30 02:39:00,
2013-07-29 20:44:00,66.6,56.5,29.88,SSE,157,0.8,2.3,70,0.00,BKN,BKN,0.00,0.0,WeatherDisplay:10.37,2013-07-30 02:44:00,
2013-07-29 20:49:00,66.4,56.7,29.88,SSE,157,1.1,3.4,71,0.00,BKN,BKN,0.00,0.0,WeatherDisplay:10.37,2013-07-30 02:49:00,
2013-07-29 20:54:00,66.1,56.4,29.89,SSE,165,1.0,5.0,71,0.00,BKN,BKN,0.00,0.0,WeatherDisplay:10.37,2013-07-30 02:54:00,
2013-07-29 20:59:00,65.9,56.6,29.88,SSE,161,2.0,3.4,72,0.00,BKN,BKN,0.00,0.0,WeatherDisplay:10.37,2013-07-30 02:59:00,
2013-07-29 21:04:00,65.8,56.5,29.89,SSE,157,1.5,4.0,72,0.00,BKN,BKN,0.00,0.0,WeatherDisplay:10.37,2013-07-30 03:04:00,
2013-07-29 21:09:00,65.6,56.3,29.90,SSE,158,1.0,3.4,72,0.00,BKN,BKN,0.00,0.0,WeatherDisplay:10.37,2013-07-30 03:09:00,
2013-07-29 21:14:00,65.5,56.2,29.90,SSE,157,1.7,3.4,72,0.00,BKN,BKN,0.00,0.0,WeatherDisplay:10.37,2013-07-30 03:14:00,
2013-07-29 21:19:00,65.4,56.1,29.90,SSE,156,0.0,0.0,72,0.00,BKN,BKN,0.00,0.0,WeatherDisplay:10.37,2013-07-30 03:19:00,
2013-07-29 21:24:00,65.3,56.0,29.90,SSE,156,0.3,2.0,72,0.00,BKN,BKN,0.00,0.0,WeatherDisplay:10.37,2013-07-30 03:24:00,
2013-07-29 21:29:00,65.1,55.8,29.91,SSE,155,0.9,3.4,72,0.00,BKN,BKN,0.00,0.0,WeatherDisplay:10.37,2013-07-30 03:29:00,
2013-07-29 21:34:00,64.9,55.7,29.90,SE,142,2.3,6.9,72,0.00,BKN,BKN,0.00,0.0,WeatherDisplay:10.37,2013-07-30 03:34:00,
2013-07-29 21:39:00,64.8,55.2,29.91,SE,137,1.3,3.4,71,0.00,BKN,BKN,0.00,0.0,WeatherDisplay:10.37,2013-07-30 03:39:00,
2013-07-29 21:44:00,64.9,55.3,29.91,SSE,149,2.9,4.6,71,0.00,BKN,BKN,0.00,0.0,WeatherDisplay:10.37,2013-07-30 03:44:00,
2013-07-29 21:49:00,64.9,54.9,29.91,SSE,159,0.8,3.4,70,0.00,BKN,BKN,0.00,0.0,WeatherDisplay:10.37,2013-07-30 03:49:00,
2013-07-29 21:54:00,64.9,54.9,29.92,SSE,159,0.1,1.1,70,0.00,BKN,BKN,0.00,0.0,WeatherDisplay:10.37,2013-07-30 03:54:00,
2013-07-29 21:59:00,64.9,54.5,29.92,South,183,0.8,2.3,69,0.00,BKN,BKN,0.00,0.0,WeatherDisplay:10.37,2013-07-30 03:59:00,
2013-07-29 22:01:00,64.9,54.5,29.92,South,182,2.8,3.0,69,0.00,BKN,BKN,0.00,0.0,WeatherDisplay:10.37,2013-07-30 04:01:00,
2013-07-29 22:06:00,64.9,54.5,29.90,South,182,1.1,3.4,69,0.00,SCT,SCT,0.00,0.0,WeatherDisplay:10.37,2013-07-30 04:06:00,
2013-07-29 22:11:00,64.9,54.5,29.91,South,182,0.6,1.0,69,0.00,SCT,SCT,0.00,0.0,WeatherDisplay:10.37,2013-07-30 04:11:00,
2013-07-29 22:16:00,64.8,54.4,29.90,South,182,0.0,3.4,69,0.00,SCT,SCT,0.00,0.0,WeatherDisplay:10.37,2013-07-30 04:16:00,
2013-07-29 22:21:00,64.7,54.3,29.90,South,182,0.1,1.1,69,0.00,SCT,SCT,0.00,0.0,WeatherDisplay:10.37,2013-07-30 04:21:00,
2013-07-29 22:26:00,64.6,54.2,29.90,South,176,0.8,3.4,69,0.00,SCT,SCT,0.00,0.0,WeatherDisplay:10.37,2013-07-30 04:26:00,
2013-07-29 22:31:00,64.5,54.1,29.90,SSE,163,2.9,3.4,69,0.00,SCT,SCT,0.00,0.0,WeatherDisplay:10.37,2013-07-30 04:31:00,
2013-07-29 22:36:00,64.4,54.0,29.90,SSE,153,1.7,3.4,69,0.00,SCT,SCT,0.00,0.0,WeatherDisplay:10.37,2013-07-30 04:36:00,
2013-07-29 22:41:00,64.3,54.3,29.90,SSE,153,0.1,2.3,70,0.00,SCT,SCT,0.00,0.0,WeatherDisplay:10.37,2013-07-30 04:41:00,
2013-07-29 22:46:00,64.2,54.2,29.90,SSE,152,0.0,0.0,70,0.00,SCT,SCT,0.00,0.0,WeatherDisplay:10.37,2013-07-30 04:46:00,
2013-07-29 22:51:00,64.0,54.0,29.91,SSE,153,0.3,1.0,70,0.00,SCT,SCT,0.00,0.0,WeatherDisplay:10.37,2013-07-30 04:51:00,
2013-07-29 22:56:00,64.0,54.0,29.91,SSE,153,0.1,0.0,70,0.00,SCT,SCT,0.00,0.0,WeatherDisplay:10.37,2013-07-30 04:56:00,
2013-07-29 23:01:00,63.8,54.2,29.91,SSE,153,0.0,1.1,71,0.00,BKN,BKN,0.00,0.0,WeatherDisplay:10.37,2013-07-30 05:01:00,
2013-07-29 23:06:00,63.7,54.1,29.89,SSE,153,0.9,2.3,71,0.00,BKN,BKN,0.00,0.0,WeatherDisplay:10.37,2013-07-30 05:06:00,
2013-07-29 23:11:00,63.6,54.0,29.89,SSE,153,0.0,0.0,71,0.00,BKN,BKN,0.00,0.0,WeatherDisplay:10.37,2013-07-30 05:11:00,
2013-07-29 23:16:00,63.4,54.2,29.90,SSE,152,0.0,0.0,72,0.00,BKN,BKN,0.00,0.0,WeatherDisplay:10.37,2013-07-30 05:16:00,
2013-07-29 23:21:00,63.3,54.1,29.90,SSE,153,0.0,0.0,72,0.00,BKN,BKN,0.00,0.0,WeatherDisplay:10.37,2013-07-30 05:21:00,
2013-07-29 23:26:00,63.1,53.9,29.90,SSE,153,0.0,0.0,72,0.00,BKN,BKN,0.00,0.0,WeatherDisplay:10.37,2013-07-30 05:26:00,
2013-07-29 23:31:00,63.0,54.2,29.90,SSE,153,0.0,0.0,73,0.00,BKN,BKN,0.00,0.0,WeatherDisplay:10.37,2013-07-30 05:31:00,
2013-07-29 23:36:00,62.8,53.6,29.90,SSE,152,0.0,0.0,72,0.00,BKN,BKN,0.00,0.0,WeatherDisplay:10.37,2013-07-30 05:36:00,
2013-07-29 23:41:00,62.6,53.8,29.91,SSE,152,0.4,0.0,73,0.00,BKN,BKN,0.00,0.0,WeatherDisplay:10.37,2013-07-30 05:41:00,
2013-07-29 23:46:00,62.5,54.1,29.91,SSE,153,0.8,1.1,74,0.00,BKN,BKN,0.00,0.0,WeatherDisplay:10.37,2013-07-30 05:46:00,
2013-07-29 23:51:00,62.4,54.4,29.92,SSE,153,0.0,0.0,75,0.00,BKN,BKN,0.00,0.0,WeatherDisplay:10.37,2013-07-30 05:51:00,
2013-07-29 23:56:00,62.2,54.5,29.92,SSE,152,0.0,0.0,76,0.00,BKN,BKN,0.00,0.0,WeatherDisplay:10.37,2013-07-30 05:56:00,